Location: Unspecified
(0.0000°N, 0.0000°E)
Time: 08:21:36
(UTC+00:00)

Transit 4A - Pass Details

Date: 05 October 2023
Orbit: 864 x 979 km, 66.8° (Epoch: 05 December)

Event Time Altitude Azimuth Distance (km) Brightness Sun altitude
Rises 09:09:54 0° 219° (SW) 3,552 10.7 50.1°
Reaches altitude 10° 09:12:38 10° 228° (SW) 2,626 10.1 50.8°
Maximum altitude 09:18:02 33° 290° (WNW) 1,537 9.1 52.1°
Drops below altitude 10° 09:23:33 10° 352° (N) 2,683 10.3 53.5°
Sets 09:26:24 0° 2° (N) 3,640 11.0 54.2°
